User: anonymous   Login
Location: ?
(35.4064°N, 139.3593°E)
Time: 06:46:48
(UTC+00:00)
Language:

Chandra Rocket (1) - Orbit

View from above orbital plane
View from above orbital plane
View from above satellite
View from above satellite

Ground track
Ground track

The orbit data is extracted from the following two-line orbital elements,

1 25868U 99040C   24173.82529663  .00005424  00000-0  55409-3 0  9990
2 25868  28.4635  84.5783 4425542 218.8665  99.1448  6.63274371564702
Epoch (UTC): 21 June 2024 19:48:25
Eccentricity: 0.4425542
inclination: 28.4635°
perigee height: 292 km
apogee height: 10883 km
right ascension of ascending node: 84.5783°
argument of perigee: 218.8665°
revolutions per day: 6.63274371
mean anomaly at epoch: 99.1448°
orbit number at epoch: 56470

The dashed part of the orbit path shows where the satellite is in the earth's shadow,  

DLR